Flag for USA

Past Weather in Moorpark, California, USA — Yesterday and Last 2 Weeks

Now
68 °F

Overcast.


Feels Like: 68 °F
Forecast: 76 / 56 °F
Wind: No wind

Location: Camarillo Airport

Current Time: Jul 2, 2020 at 8:58:37 am

Latest Report: Jul 2, 2020 at 7:55 am


Visibility: 10 mi

Pressure: 29.96 "Hg

Humidity: 68%

Dew Point: 57 °F

Location of MoorparkLocation

Past Weather in Moorpark — Graph

°F

Moorpark Temperature Yesterday

Maximum temperature yesterday: 74 °F (at 12:55 pm)
Minimum temperature yesterday: 63 °F (at 12:55 am)
Average temperature yesterday: 68 °F

High & Low Weather Summary for the Past Weeks

 TemperatureHumidityPressure
High76 °F (Jun 22, 1:55 pm)87% (Jun 25, 5:01 am)30.05 "Hg (Jun 25, 5:01 am)
Low56 °F (Jun 30, 5:55 am)45% (Jun 29, 3:55 pm)29.79 "Hg (Jun 24, 6:03 pm)
Average67 °F70%29.92 "Hg
* Reported Jun 17 7:03 am — Jul 2 6:55 am, Moorpark. Weather by CustomWeather, © 2020

Note: Actual official high and low records may vary slightly from our data, if they occured in-between our weather recording intervals... More about our weather records

Moorpark Weather History for the Previous 24 Hours

Scroll right to see more
 ConditionsComfort  
Time TempWeatherWind HumidityBarometerVisibility
6:55 am
Thu, Jul 2
67 °FOvercast.No wind71%29.94 "Hg10 mi
5:55 am66 °FOvercast.3 mph70%29.93 "Hg10 mi
4:55 am65 °FOvercast.No wind73%29.92 "Hg10 mi
4:08 am65 °FOvercast.5 mph73%29.89 "Hg10 mi
3:55 am65 °FOvercast.5 mph73%29.91 "Hg10 mi
2:55 am64 °FOvercast.5 mph75%29.91 "Hg10 mi
1:55 am64 °FOvercast.3 mph75%29.91 "Hg10 mi
12:55 am64 °FPassing clouds.3 mph75%29.92 "Hg10 mi
11:55 pm
Wed, Jul 1
65 °FOvercast.No wind76%29.92 "Hg10 mi
10:55 pm65 °FOvercast.No wind73%29.92 "Hg10 mi
10:30 pm64 °FPassing clouds.No wind75%29.89 "Hg10 mi
9:55 pm64 °FPassing clouds.3 mph75%29.91 "Hg10 mi
8:55 pm65 °FClear.6 mph73%29.89 "Hg10 mi
7:55 pm66 °FSunny.9 mph73%29.88 "Hg10 mi
7:26 pm68 °FScattered clouds.8 mph68%29.86 "Hg10 mi
6:55 pm70 °FPartly sunny.12 mph66%29.88 "Hg10 mi
5:55 pm73 °FPassing clouds.10 mph57%29.88 "Hg10 mi
4:55 pm73 °FSunny.10 mph55%29.88 "Hg10 mi
3:55 pm73 °FPassing clouds.12 mph57%29.90 "Hg10 mi
2:55 pm74 °FPassing clouds.12 mph56%29.91 "Hg10 mi
2:03 pm73 °FScattered clouds.10 mph57%29.90 "Hg10 mi
1:32 pm72 °FPartly sunny.13 mph59%29.91 "Hg10 mi
12:55 pm74 °FScattered clouds.10 mph56%29.93 "Hg10 mi
11:55 am73 °FScattered clouds.3 mph57%29.93 "Hg10 mi
10:55 am71 °FOvercast.3 mph55%29.93 "Hg10 mi
9:55 am68 °FOvercast.5 mph63%29.93 "Hg10 mi
8:55 am67 °FOvercast.3 mph66%29.93 "Hg10 mi
Weather by CustomWeather, © 2020

See weather overview